Flag for Canada Weather past 2 weeks in Owen Sound, Ontario, Canada

Now
25 °F

Light snow. Overcast.


Feels Like: 17 °F
Forecast: 26 / 29 °F
Wind: 7 mph from Northwest

Location: Wiarton

Current Time: Dec 18, 2014 at 6:11:57 AM

Latest Report: Dec 18, 2014 at 5:00 AM


Visibility: 10 mi

Pressure: 30.11 "Hg

Humidity: 86%

Dew point: 21 °F

Location of Owen SoundLocation

Historic Weather in Owen Sound — Graph

°F

Owen Sound temperature yesterday

Maximum temperature yesterday: 36 °F (at 12:00 AM)
Minimum temperature yesterday: 28 °F (at 7:00 PM)
Average temperature yesterday: 33 °F

Past Weeks' High & Low Weather Summary

 TemperatureHumidityPressure
High43 °F (Dec 15, 4:00 PM)100% (Dec 3, 5:00 AM)30.79 "Hg (Dec 3, 5:00 AM)
Low16 °F (Dec 4, 9:00 PM)29% (Dec 11, 3:00 PM)29.72 "Hg (Dec 16, 2:00 PM)
Average32 °F80%30.14 "Hg
* Reported Dec 3 5:00 AM — Dec 18 5:00 AM, Owen Sound, Weather by CustomWeather, © 2014

Note: Actual official high and low records may vary slightly from our data, if they occured in-between our weather recording intervals... More about our weather records

Advertising

Owen Sound weather history for previous 24 hours

 ConditionsComfort  
Time TempWeatherWind HumidityBarometerVisibility
5:00 AM
Dec 18
25 °FLight snow. Overcast.7 mph86%30.11 "Hg10 mi
4:00 AM27 °FLight snow. Overcast.7 mph86%30.10 "Hg10 mi
3:00 AM27 °FLight snow. Overcast.7 mph86%30.09 "Hg12 mi
2:00 AM27 °FLight snow. Overcast.7 mph86%30.05 "Hg15 mi
1:00 AM27 °FLight snow. Overcast.6 mph93%30.04 "Hg15 mi
12:00 AM28 °FLight snow. Low clouds.6 mph86%30.03 "Hg8 mi
11:00 PM
Dec 17
28 °FLight snow. Low clouds.6 mph93%30.01 "Hg8 mi
10:00 PM28 °FLight snow. Overcast.7 mph93%30.00 "Hg10 mi
9:00 PM28 °FLight snow. Overcast.7 mph93%29.98 "Hg10 mi
8:00 PM28 °FLight snow. Low clouds.6 mph93%29.97 "Hg4 mi
7:00 PM28 °FLight snow. Mostly cloudy.7 mph100%29.96 "Hg1 mi
6:00 PM30 °FLight snow. Mostly cloudy.12 mph93%29.94 "Hg3 mi
5:00 PM30 °FLight snow. Low clouds.12 mph93%29.92 "Hg2 mi
4:00 PM32 °FLight snow. Low clouds.9 mph93%29.90 "Hg4 mi
3:00 PM32 °FLight snow. Low clouds.10 mph93%29.89 "Hg6 mi
2:00 PM34 °FLight snow. Low clouds.9 mph93%29.87 "Hg8 mi
1:00 PM34 °FLight snow. Low clouds.12 mph93%29.87 "Hg6 mi
12:00 PM36 °FMostly cloudy.7 mph93%29.86 "Hg15 mi
11:00 AM36 °FLow clouds.6 mph93%29.87 "Hg15 mi
10:00 AM36 °FLow clouds.5 mph93%29.86 "Hg15 mi
9:00 AM34 °FLow clouds.6 mph100%29.84 "Hg12 mi
8:00 AM34 °FLight rain. Fog.5 mph100%29.83 "Hg6 mi
7:00 AM34 °FDrizzle. Fog.5 mph100%29.81 "Hg4 mi
6:00 AM34 °FLight rain. Mostly cloudy.5 mph100%29.80 "Hg4 mi
Weather by CustomWeather, © 2014

See weather overviewHow to use our weather pages